Jackson Hole, USA 16 day weather forecast

Slopes altitude range 1925 m - 3185m

Number of lifts: 12 Pistes: 116km

In some cases the lift and piste totals shown are for the ski domain (e.g. Three Valleys) rather than individual resort (e.g. Courchevel)

Overview

The 16 day weather forecast is fully updated 4 times every day.

    • Wed 23 MAY 2018
    • Wed 23
    • 5C 6C
    • Thu 24 MAY 2018
    • Thu 24
    • 5C 6C
    • Fri 25 MAY 2018
    • Fri 25
    • 4C 6C
    • Sat 26 MAY 2018
    • Sat 26
    • 5C 8C
    • Sun 27 MAY 2018
    • Sun 27
    • 6C 8C
    • Mon 28 MAY 2018
    • Mon 28
    • 6C 8C
    • Tue 29 MAY 2018
    • Tue 29
    • 6C 8C
    • Wed 30 MAY 2018
    • Wed 30
    • 7C 9C
    • Thu 31 MAY 2018
    • Thu 31
    • 8C 9C
    • Fri 01 JUN 2018
    • Fri 01
    • 5C 7C
    • Sat 02 JUN 2018
    • Sat 02
    • -1C 9C
    • Sun 03 JUN 2018
    • Sun 03
    • -1C 13C
    • Mon 04 JUN 2018
    • Mon 04
    • 2C 11C
    • Tue 05 JUN 2018
    • Tue 05
    • -2C 13C
    • Wed 06 JUN 2018
    • Wed 06
    • 0C 15C
    • Thu 07 JUN 2018
    • Thu 07
    • 0C 16C

Date:

Time Type 0°C level Temp Chill Snow Cloud Speed Gust Dir Press
3:00 3770m 6°C 6_2 0cm 100% 2mph 3mph 1010mB
6:00 3715m 6°C 6_2 0cm 100% 2mph 2mph 1011mB
9:00 3525m 5°C 5_2 0cm 100% 2mph 3mph 1011mB
12:00 3408m 6°C 6_3 0cm 100% 3mph 4mph 1011mB
15:00 3414m 7°C 7_4 0cm 100% 4mph 8mph 1011mB
18:00 3358m 9°C 9_6 0cm 100% 6mph 13mph 1011mB
21:00 3443m 9°C 9_9 0cm 100% 9mph 16mph 1011mB
0:00 3442m 9°C 9_6 0cm 100% 6mph 16mph 1011mB
3:00 3511m 7°C 7_4 0cm 100% 4mph 5mph 1013mB
6:00 3660m 6°C 6_4 0cm 100% 4mph 5mph 1015mB
9:00 3653m 5°C 5_3 0cm 100% 3mph 4mph 1015mB
12:00 3655m 6°C 6_3 0cm 100% 3mph 4mph 1017mB
15:00 3637m 9°C 9_3 0cm 100% 3mph 5mph 1017mB
18:00 3743m 15°C 15_6 0cm 100% 6mph 10mph 1016mB
21:00 3911m 15°C 15_9 0cm 51% 9mph 13mph 1014mB
0:00 4016m 14°C 14_5 0cm 75% 5mph 12mph 1014mB
3:00 3999m 9°C 9_3 0cm 53% 3mph 4mph 1016mB
6:00 3977m 6°C 6_4 0cm 29% 4mph 5mph 1018mB
9:00 3996m 5°C 5_4 0cm 0% 4mph 4mph 1017mB
12:00 3958m 6°C 6_4 0cm 0% 4mph 5mph 1017mB
15:00 3992m 12°C 12_3 0cm 0% 3mph 6mph 1015mB
18:00 4053m 21°C 21_4 0cm 0% 4mph 8mph 1013mB
21:00 4231m 20°C 20_7 0cm 34% 7mph 10mph 1010mB
0:00 4255m 19°C 19_4 0cm 67% 4mph 9mph 1009mB
3:00 4222m 11°C 11_2 0cm 57% 2mph 2mph 1010mB
6:00 4253m 8°C 8_3 0cm 36% 3mph 4mph 1011mB
9:00 4254m 6°C 6_4 0cm 1% 4mph 5mph 1010mB
12:00 4201m 8°C 8_4 0cm 1% 4mph 5mph 1010mB
15:00 4178m 15°C 15_3 0cm 0% 3mph 5mph 1008mB
18:00 4195m 24°C 24_3 0cm 17% 3mph 8mph 1006mB
21:00 4256m 19°C 19_3 0cm 100% 3mph 4mph 1005mB
0:00 4342m 15°C 15_3 0cm 100% 3mph 4mph 1004mB
3:00 4469m 11°C 11_3 0cm 67% 3mph 5mph 1006mB
6:00 4265m 8°C 8_3 0cm 83% 3mph 4mph 1009mB
9:00 4243m 6°C 6_3 0cm 45% 3mph 4mph 1009mB
12:00 4314m 8°C 8_4 0cm 68% 4mph 5mph 1010mB
15:00 4422m 14°C 14_4 0cm 94% 4mph 6mph 1008mB
18:00 4460m 22°C 22_4 0cm 97% 4mph 6mph 1006mB
21:00 4314m 15°C 15_9 0cm 100% 9mph 16mph 1006mB
0:00 4412m 12°C 12_3 0cm 98% 3mph 3mph 1008mB
3:00 4226m 9°C 9_4 0cm 100% 4mph 5mph 1011mB
6:00 4128m 8°C 8_3 0cm 100% 3mph 4mph 1011mB
9:00 4252m 8°C 8_3 0cm 100% 3mph 4mph 1011mB
12:00 4113m 8°C 8_1 0cm 100% 1mph 2mph 1012mB
15:00 4055m 13°C 13_2 0cm 95% 2mph 4mph 1012mB
18:00 3989m 21°C 21_3 0cm 65% 3mph 8mph 1010mB
21:00 4142m 18°C 18_3 0cm 68% 3mph 6mph 1009mB
0:00 4173m 16°C 16_6 0cm 73% 6mph 8mph 1008mB
3:00 4084m 9°C 9_3 0cm 44% 3mph 4mph 1011mB
6:00 4174m 8°C 8_2 0cm 71% 2mph 3mph 1011mB
9:00 4118m 7°C 7_2 0cm 100% 2mph 3mph 1011mB
12:00 4060m 8°C 8_2 0cm 100% 2mph 2mph 1012mB
15:00 4029m 11°C 11_3 0cm 100% 3mph 5mph 1011mB
18:00 4032m 17°C 17_4 0cm 100% 4mph 5mph 1008mB
21:00 4075m 14°C 14_5 0cm 100% 5mph 7mph 1007mB
0:00 4016m 13°C 13_5 0cm 100% 5mph 8mph 1007mB
3:00 3933m 8°C 8_4 0cm 100% 4mph 5mph 1008mB
6:00 3850m 7°C 7_4 0cm 100% 4mph 5mph 1009mB
9:00 3738m 8°C 8_4 0cm 100% 4mph 11mph 1008mB
12:00 3722m 9°C 9_3 0cm 97% 3mph 4mph 1009mB
15:00 3736m 11°C 11_6 0cm 80% 6mph 11mph 1009mB
18:00 3729m 17°C 17_10 0cm 46% 10mph 16mph 1007mB
21:00 3847m 16°C 16_13 0cm 6% 13mph 22mph 1005mB
0:00 3905m 16°C 16_11 0cm 29% 11mph 19mph 1005mB
3:00 4005m 10°C 10_5 0cm 75% 5mph 6mph 1005mB
6:00 3902m 9°C 9_1 0cm 83% 1mph 5mph 1005mB
9:00 3914m 9°C 9_5 0cm 100% 5mph 5mph 1005mB
12:00 3666m 9°C 9_4 0cm 100% 4mph 13mph 1006mB
15:00 3567m 10°C 10_8 0cm 100% 8mph 22mph 1006mB
18:00 3398m 14°C 14_16 0cm 73% 16mph 26mph 1005mB
21:00 3453m 13°C 13_18 0cm 52% 18mph 31mph 1005mB
0:00 3429m 13°C 13_16 0cm 35% 16mph 28mph 1005mB
3:00 3514m 8°C 8_7 0cm 15% 7mph 26mph 1007mB
6:00 3288m 7°C 7_8 0cm 44% 8mph 29mph 1008mB
9:00 3227m 5°C 5_7 0cm 99% 7mph 28mph 1007mB
12:00 3080m 7°C 7_9 0cm 99% 9mph 29mph 1008mB
15:00 2793m 6°C 6_16 0cm 58% 16mph 25mph 1009mB
18:00 2776m 7°C 7_9 0cm 72% 9mph 15mph 1008mB
Morning 0.645833mm 6.5 2841m 4°C 4_3 0cm 94% 3mph 7mph 1014mB
Afternoon 0.71875mm 0.25 2822m 9°C 9_5 6cm 42% 5mph 7mph 1018mB
Morning 0.510417mm 1.5 3119m 1°C 1_5 0cm 51% 5mph 7mph 1023mB
Afternoon 0.661458mm 0 3177m 13°C 13_5 0cm 0% 5mph 7mph 1021mB
Morning 0.338542mm 0 3433m 4°C 4_2 0cm 12% 2mph 3mph 1019mB
Afternoon 0.302083mm 1.75 3175m 11°C 11_9 0cm 45% 9mph 13mph 1013mB
Morning 0.494792mm 5.75 2997m 1°C 1_6 0cm 66% 6mph 11mph 1019mB
Afternoon 0.734375mm 0 3198m 13°C 13_7 0cm 1% 7mph 9mph 1013mB
Morning 0.645833mm 2.0625 3084m 5°C 5_5 0cm 80% 5mph 11mph 1015mB
Afternoon 0.739583mm 0 3248m 15°C 15_4 0cm 23% 4mph 4mph 1014mB
Morning 0.1875mm 0 3353m 3°C 3_6 0cm 13% 6mph 9mph 1018mB
Afternoon 0.197917mm 0 3428m 16°C 16_4 0cm 0% 4mph 5mph 1016mB

16 day outlook at a glance

Forecast issued: 23/05/2018 04:27:24

Chat

Your comments and questions. In a resort? Let us know what it's like!


Characters left 250

For terms and conditions see Readers Comments on the Cookie and privacy policy page.